User: anonymous   Login
Location: Unspecified
(0.0000°N, 0.0000°E)
Time: 12:16:10
(UTC+00:00)
Language:

NOSS 7 (E) - Orbit

View from above orbital plane
View from above orbital plane
View from above satellite
View from above satellite

Ground track
Ground track

The orbit data is extracted from the following two-line orbital elements,

1 16624U 86014E   17095.85341211 0.00001000  00000-0  13241-3 0    03
2 16624  63.3130  21.8579 0879000  55.7219 304.2781 13.45350937    07
Epoch (UTC): 05 April 2017 20:28:54
Eccentricity: 0.0879000
inclination: 63.3130°
perigee height: 433 km
apogee height: 1746 km
right ascension of ascending node: 21.8579°
argument of perigee: 55.7219°
revolutions per day: 13.45350937
mean anomaly at epoch: 304.2781°
orbit number at epoch: 0

The dashed part of the orbit path shows where the satellite is in the earth's shadow,  

DLR